OAO 3 (COPERNICUS)

Last updated on Mon Sep 21 2026 00:02:07 GMT+0000 (Coordinated Universal Time)

1 06153U 72065A 26263.00704212 .00000191 00000+0 43351-4 0 9990 2 06153 35.0054 270.1067 0007020 307.5339 71.9289 14.60103988874618
UTC large
Height (km)
Speed (km/s)
/
Latitude / Longitude
Inclination (degrees)
Orbital Period (minutes)
Azimuth
Elevation
Range (km)
Doppler Factor

Next 0 passes for location: London (51.5072 / 0.1276)

No passes found over London.
OAO 3 (COPERNICUS)